{"data":{"norad_id":51964,"epoch":"2026-09-19T13:23:51.253440Z","epoch_age_seconds":137084,"freshness":"FRESH","line1":"1 51964U 22025J   26262.55823210  .00000393  00000+0  24416-4 0  9995","line2":"2 51964  53.1607 202.0523 0001132  93.6870 266.4261 15.31696625250720","mean_motion":15.31696625,"eccentricity":0.0001132,"inclination_deg":53.1607,"raan_deg":202.0523,"arg_perigee_deg":93.687,"mean_anomaly_deg":266.4261,"bstar":2.4416e-5,"rev_number":25072,"period_min":94.013395113409,"perigee_km":469.97476192877,"apogee_km":471.52534995823,"semimajor_km":6848.8870559435,"source":"CELESTRAK","updated_at":"2026-09-20T09:00:39.976462Z"}}